| time (UTC) | temp C | wind direction | speed KPH | gust KPH | rain 1hr cm | rain 24hr cm | rain mn cm | humidity % | barometer mb |
| 20260510204538 | 26 | 182 | 0.0 | 4.8 | 0.00 | 0.00 | 0.00 | 50 | 1011.1 |
| 20260510203033 | 26 | 92 | 0.0 | 4.8 | 0.00 | 0.00 | 0.00 | 51 | 1011.1 |
| 20260510201533 | 27 | 134 | 0.0 | 8.0 | 0.00 | 0.00 | 0.00 | 45 | 1011.0 |
| 20260510200033 | 27 | 143 | 1.6 | 11.3 | 0.00 | 0.00 | 0.00 | 47 | 1011.1 |
| 20260510194534 | 25 | 118 | 1.6 | 11.3 | 0.00 | 0.00 | 0.00 | 56 | 1011.5 |
| 20260510193030 | 27 | 81 | 1.6 | 9.7 | 0.00 | 0.00 | 0.00 | 50 | 1011.8 |
| 20260510191530 | 26 | 78 | 0.0 | 9.7 | 0.00 | 0.00 | 0.00 | 52 | 1012.0 |
| 20260510190034 | 26 | 146 | 3.2 | 14.5 | 0.00 | 0.00 | 0.00 | 56 | 1012.0 |
| 20260510184527 | 27 | 284 | 0.0 | 8.0 | 0.00 | 0.00 | 0.00 | 51 | 1012.2 |
| 20260510183026 | 27 | 150 | 1.6 | 8.0 | 0.00 | 0.00 | 0.00 | 51 | 1012.2 |
| 20260510181525 | 27 | 273 | 0.0 | 14.5 | 0.00 | 0.00 | 0.00 | 41 | 1012.4 |
| 20260510180025 | 28 | 132 | 0.0 | 6.4 | 0.00 | 0.00 | 0.00 | 44 | 1012.5 |
| 20260510174520 | 27 | 330 | 1.6 | 14.5 | 0.00 | 0.00 | 0.00 | 48 | 1012.5 |
| 20260510173017 | 26 | 144 | 0.0 | 3.2 | 0.00 | 0.00 | 0.00 | 43 | 1012.5 |
| 20260510171516 | 27 | 250 | 0.0 | 9.7 | 0.00 | 0.00 | 0.00 | 43 | 1012.7 |
| 20260510170016 | 27 | 184 | 8.0 | 16.1 | 0.00 | 0.00 | 0.00 | 47 | 1012.9 |
| 20260510164523 | 26 | 313 | 1.6 | 8.0 | 0.00 | 0.00 | 0.00 | 48 | 1012.9 |
| 20260510163011 | 27 | 194 | 6.4 | 17.7 | 0.00 | 0.00 | 0.00 | 46 | 1013.1 |
| 20260510161508 | 26 | 176 | 1.6 | 11.3 | 0.00 | 0.00 | 0.00 | 55 | 1013.1 |
| 20260510160007 | 26 | 203 | 1.6 | 9.7 | 0.00 | 0.00 | 0.00 | 54 | 1013.1 |
| 20260510154504 | 25 | 215 | 0.0 | 8.0 | 0.00 | 0.00 | 0.00 | 58 | 1013.3 |
| 20260510153001 | 24 | 140 | 0.0 | 0.0 | 0.00 | 0.00 | 0.00 | 61 | 1013.3 |
| 20260510151559 | 24 | 286 | 0.0 | 0.0 | 0.00 | 0.00 | 0.00 | 59 | 1013.4 |
| 20260510150120 | 24 | 203 | 0.0 | 0.0 | 0.00 | 0.00 | 0.00 | 62 | 1013.2 |
| 20260510144552 | 23 | 184 | 0.0 | 0.0 | 0.00 | 0.00 | 0.00 | 64 | 1013.0 |
| 20260510143046 | 22 | 167 | 0.0 | 0.0 | 0.00 | 0.00 | 0.00 | 66 | 1012.8 |
| 20260510141542 | 22 | 180 | 0.0 | 0.0 | 0.00 | 0.00 | 0.00 | 69 | 1012.9 |
| 20260510140038 | 21 | 159 | 0.0 | 0.0 | 0.00 | 0.00 | 0.00 | 71 | 1012.9 |
| 20260510134536 | 20 | 175 | 0.0 | 0.0 | 0.00 | 0.00 | 0.00 | 74 | 1012.8 |
| 20260510133032 | 19 | 315 | 0.0 | 0.0 | 0.00 | 0.00 | 0.00 | 74 | 1012.8 |
| 20260510131527 | 18 | 311 | 0.0 | 0.0 | 0.00 | 0.00 | 0.00 | 78 | 1012.9 |
| 20260510130023 | 17 | 311 | 0.0 | 0.0 | 0.00 | 0.00 | 0.00 | 85 | 1013.2 |
| 20260510124527 | 16 | 305 | 0.0 | 0.0 | 0.00 | 0.00 | 0.00 | 90 | 1013.3 |
| 20260510123017 | 15 | 341 | 0.0 | 0.0 | 0.00 | 0.00 | 0.00 | 93 | 1013.1 |
| 20260510121513 | 14 | 310 | 0.0 | 0.0 | 0.00 | 0.00 | 0.00 | 94 | 1013.0 |
| 20260510120019 | 13 | 331 | 0.0 | 0.0 | 0.00 | 0.00 | 0.00 | 95 | 1012.7 |
| 20260510114515 | 12 | 319 | 0.0 | 0.0 | 0.00 | 0.00 | 0.00 | 95 | 1012.6 |
| 20260510113005 | 11 | 127 | 0.0 | 0.0 | 0.00 | 0.00 | 0.00 | 95 | 1012.2 |
| 20260510111502 | 11 | 127 | 0.0 | 0.0 | 0.00 | 0.00 | 0.00 | 95 | 1012.0 |
| 20260510110105 | 10 | 112 | 0.0 | 0.0 | 0.00 | 0.00 | 0.00 | 94 | 1011.9 |
| 20260510104607 | 10 | 112 | 0.0 | 0.0 | 0.00 | 0.00 | 0.00 | 94 | 1011.6 |
| 20260510103104 | 10 | 112 | 0.0 | 0.0 | 0.00 | 0.00 | 0.00 | 94 | 1011.5 |
| 20260510101559 | 9 | 112 | 0.0 | 0.0 | 0.00 | 0.00 | 0.00 | 94 | 1011.4 |
| 20260510100053 | 9 | 112 | 0.0 | 0.0 | 0.00 | 0.00 | 0.00 | 94 | 1011.3 |
| 20260510094604 | 9 | 112 | 0.0 | 0.0 | 0.00 | 0.00 | 0.00 | 94 | 1011.2 |
| 20260510093100 | 10 | 112 | 0.0 | 0.0 | 0.00 | 0.00 | 0.00 | 94 | 1011.2 |
| 20260510091545 | 10 | 111 | 0.0 | 0.0 | 0.00 | 0.00 | 0.00 | 94 | 1011.1 |
| 20260510090047 | 10 | 111 | 0.0 | 0.0 | 0.00 | 0.00 | 0.00 | 94 | 1011.0 |
| 20260510084541 | 10 | 111 | 0.0 | 0.0 | 0.00 | 0.00 | 0.00 | 94 | 1010.8 |
| 20260510083051 | 10 | 111 | 0.0 | 0.0 | 0.00 | 0.00 | 0.00 | 93 | 1010.6 |
| 20260510081540 | 10 | 111 | 0.0 | 0.0 | 0.00 | 0.00 | 0.00 | 94 | 1010.4 |
| 20260510080034 | 10 | 111 | 0.0 | 0.0 | 0.00 | 0.00 | 0.00 | 93 | 1010.2 |
| 20260510074532 | 11 | 111 | 0.0 | 0.0 | 0.00 | 0.00 | 0.00 | 93 | 1010.0 |
| 20260510073030 | 11 | 111 | 0.0 | 0.0 | 0.00 | 0.00 | 0.00 | 93 | 1010.0 |
| 20260510071535 | 11 | 111 | 0.0 | 0.0 | 0.00 | 0.00 | 0.00 | 93 | 1010.0 |
| 20260510070028 | 11 | 111 | 0.0 | 0.0 | 0.00 | 0.00 | 0.00 | 93 | 1009.9 |
| 20260510064528 | 11 | 111 | 0.0 | 0.0 | 0.00 | 0.00 | 0.00 | 93 | 1009.8 |
| 20260510063025 | 11 | 111 | 0.0 | 0.0 | 0.00 | 0.00 | 0.00 | 92 | 1009.8 |
| 20260510061523 | 11 | 111 | 0.0 | 0.0 | 0.00 | 0.00 | 0.00 | 92 | 1009.7 |
| 20260510060035 | 11 | 111 | 0.0 | 0.0 | 0.00 | 0.00 | 0.00 | 92 | 1009.6 |
| 20260510054533 | 11 | 111 | 0.0 | 0.0 | 0.00 | 0.00 | 0.00 | 91 | 1009.7 |
| 20260510053019 | 12 | 111 | 0.0 | 0.0 | 0.00 | 0.00 | 0.00 | 91 | 1009.8 |
| 20260510051517 | 12 | 111 | 0.0 | 0.0 | 0.00 | 0.00 | 0.00 | 91 | 1009.9 |
| 20260510050015 | 12 | 111 | 0.0 | 0.0 | 0.00 | 0.00 | 0.00 | 91 | 1009.8 |
| 20260510044514 | 12 | 111 | 0.0 | 0.0 | 0.00 | 0.00 | 0.00 | 90 | 1009.8 |
| 20260510043012 | 12 | 111 | 0.0 | 0.0 | 0.00 | 0.00 | 0.00 | 89 | 1009.9 |
| 20260510041509 | 12 | 111 | 0.0 | 0.0 | 0.00 | 0.00 | 0.00 | 88 | 1009.7 |
| 20260510040006 | 13 | 111 | 0.0 | 0.0 | 0.00 | 0.00 | 0.00 | 87 | 1009.8 |
| 20260510034513 | 13 | 111 | 0.0 | 0.0 | 0.00 | 0.00 | 0.00 | 87 | 1009.7 |
| 20260510033005 | 13 | 111 | 0.0 | 0.0 | 0.00 | 0.00 | 0.00 | 85 | 1009.6 |
| 20260510031509 | 14 | 111 | 0.0 | 0.0 | 0.00 | 0.00 | 0.00 | 84 | 1009.4 |
| 20260510030008 | 15 | 111 | 0.0 | 0.0 | 0.00 | 0.00 | 0.00 | 83 | 1009.3 |
| 20260510024503 | 15 | 111 | 0.0 | 0.0 | 0.00 | 0.00 | 0.00 | 82 | 1009.3 |
| 20260510023001 | 15 | 111 | 0.0 | 0.0 | 0.00 | 0.00 | 0.00 | 82 | 1009.3 |
| 20260510021501 | 16 | 111 | 0.0 | 0.0 | 0.00 | 0.00 | 0.00 | 80 | 1009.2 |
| 20260510020002 | 16 | 111 | 0.0 | 0.0 | 0.00 | 0.00 | 0.00 | 80 | 1009.0 |
| 20260510014603 | 15 | 111 | 0.0 | 0.0 | 0.00 | 0.00 | 0.00 | 79 | 1009.0 |
| 20260510013105 | 16 | 111 | 0.0 | 0.0 | 0.00 | 0.00 | 0.00 | 78 | 1008.8 |
| 20260510011600 | 16 | 111 | 0.0 | 0.0 | 0.00 | 0.00 | 0.00 | 76 | 1008.6 |
| 20260510010103 | 16 | 111 | 0.0 | 0.0 | 0.00 | 0.00 | 0.00 | 75 | 1008.5 |
| 20260510004600 | 17 | 114 | 0.0 | 6.4 | 0.00 | 0.00 | 0.00 | 74 | 1008.5 |
| 20260510003101 | 17 | 126 | 0.0 | 4.8 | 0.00 | 0.00 | 0.00 | 75 | 1008.4 |
| 20260510001557 | 17 | 94 | 0.0 | 9.7 | 0.00 | 0.00 | 0.00 | 75 | 1008.3 |
| 20260510000058 | 18 | 107 | 0.0 | 4.8 | 0.00 | 0.00 | 0.00 | 74 | 1008.2 |
| 20260509234557 | 18 | 88 | 0.0 | 3.2 | 0.00 | 0.00 | 0.00 | 73 | 1008.1 |
| 20260509233056 | 19 | 100 | 0.0 | 6.4 | 0.00 | 0.00 | 0.00 | 71 | 1008.0 |
| 20260509231558 | 20 | 99 | 0.0 | 6.4 | 0.00 | 0.00 | 0.00 | 68 | 1007.8 |
| 20260509230059 | 20 | 98 | 0.0 | 9.7 | 0.00 | 0.00 | 0.00 | 66 | 1007.7 |
| 20260509224559 | 21 | 105 | 0.0 | 8.0 | 0.00 | 0.00 | 0.00 | 61 | 1007.8 |
| 20260509223054 | 22 | 173 | 0.0 | 8.0 | 0.00 | 0.00 | 0.00 | 62 | 1007.8 |
| 20260509221555 | 21 | 230 | 0.0 | 11.3 | 0.00 | 0.00 | 0.00 | 61 | 1007.8 |
| 20260509220055 | 22 | 196 | 3.2 | 12.9 | 0.00 | 0.00 | 0.00 | 61 | 1007.9 |
| 20260509214558 | 22 | 259 | 1.6 | 11.3 | 0.00 | 0.00 | 0.00 | 57 | 1007.9 |
| 20260509213117 | 23 | 178 | 3.2 | 12.9 | 0.00 | 0.00 | 0.00 | 56 | 1007.7 |
| 20260509211553 | 23 | 220 | 1.6 | 11.3 | 0.00 | 0.00 | 0.00 | 59 | 1007.6 |